Temp
5 5 6 6 6 6 7 7 7 7 7 7 7 7 6 6 5 5 5 5 5 4 4 4 3 3 3 3 4 4 4 5 5 5 4 4 4 3 3 3 3 2 2
6 6 6 6 6 6 6 7 7 7 7 7 6 6 6 5 5 5 5 5 4 4 3 3 3 3 3 3 4 4 4 4 5 5 5 5 4 4 4 3 3 3 3
5 5 6 6 6 6 6 7 7 7 7 6 6 6 6 5 5 5 5 4 4 3 3 2 2 2 3 3 3 4 4 4 4 4 4 4 4 4 4 4 3 3 3
5 5 6 6 6 6 6 6 7 7 6 6 6 5 5 5 5 5 4 4 3 2 2 2 2 2 2 3 3 3 4 4 4 3 2 2 2 2 4 4 3 3 3
5 5 5 6 6 6 6 6 6 6 6 6 6 5 5 5 5 4 4 3 2 2 2 2 2 2 2 2 3 3 3 3 2 2 2 1 1 0 1 3 3 3 2
5 5 5 5 5 6 6 6 6 6 6 5 5 5 5 4 4 4 3 2 2 2 1 2 2 2 2 2 2 2 2 2 1 1 0 0 0 0 0 1 1 2 2
6 5 5 5 5 6 6 6 6 6 6 5 5 4 4 4 3 3 3 2 2 1 1 1 1 1 1 1 1 1 1 1 0 -0 -1 -1 -1 -1 -1 -1 -0 1 1
6 5 5 5 5 6 5 6 6 5 5 5 4 4 4 3 3 3 2 2 2 1 1 1 1 1 1 1 1 1 0 -0 -1 -1 -2 -2 -2 -2 -3 -3 -3 -1 -1
6 6 6 5 5 6 5 5 5 5 5 4 4 4 3 3 3 2 2 2 1 1 1 1 0 0 0 0 0 -0 -0 -1 -1 -2 -2 -2 -3 -3 -4 -5 -6 -6 -4
6 6 6 5 6 5 5 5 5 4 4 4 3 3 3 3 2 2 2 1 1 1 0 -0 -0 -0 -0 -0 -1 -1 -1 -2 -2 -3 -3 -3 -4 -4 -5 -6 -7 -7 -7
6 6 5 5 5 5 4 4 4 4 4 3 3 3 3 2 2 2 1 1 1 0 -0 -0 -0 -1 -1 -1 -1 -1 -2 -3 -3 -4 -4 -4 -4 -5 -6 -7 -7 -7 -8
7 7 6 5 5 4 4 4 4 4 3 3 3 3 2 2 1 1 1 0 0 0 -0 -1 -1 -1 -1 -2 -2 -2 -3 -3 -4 -4 -4 -5 -6 -6 -7 -7 -8 -8 -10
7 6 5 5 4 4 3 3 3 3 3 3 3 2 2 1 1 1 0 0 0 -0 -1 -1 -2 -2 -2 -2 -3 -3 -4 -4 -5 -5 -6 -6 -7 -7 -8 -8 -9 -9 -10
6 5 5 4 3 3 3 3 3 3 3 2 2 2 1 1 0 0 0 -0 -1 -1 -2 -2 -2 -2 -3 -3 -4 -4 -5 -5 -6 -7 -7 -7 -8 -8 -8 -9 -10 -12 -13
5 4 4 3 3 2 2 2 2 2 2 2 2 1 1 0 0 -0 -0 -1 -2 -2 -2 -2 -3 -3 -4 -4 -4 -5 -5 -6 -6 -7 -8 -8 -8 -9 -10 -11 -12 -13 -14
4 4 3 3 3 3 3 3 2 2 2 1 1 0 0 0 -0 -0 -1 -2 -2 -2 -2 -3 -3 -4 -4 -4 -5 -6 -6 -7 -7 -8 -8 -9 -9 -10 -11 -12 -13 -15 -16
4 4 3 3 3 3 2 2 2 1 1 1 0 0 -0 -0 -1 -1 -1 -2 -2 -2 -3 -4 -4 -5 -5 -5 -6 -6 -7 -8 -8 -9 -9 -9 -10 -11 -12 -13 -14 -15 -16
4 4 3 2 2 1 1 1 1 1 1 0 -0 -0 -0 -1 -1 -2 -2 -2 -3 -3 -4 -5 -5 -5 -6 -6 -6 -7 -8 -9 -9 -9 -10 -11 -11 -13 -14 -14 -15 -15 -16
4 3 3 2 2 1 1 1 1 0 0 -0 -0 -1 -1 -1 -1 -2 -2 -3 -4 -4 -5 -5 -6 -6 -6 -7 -7 -8 -9 -9 -9 -10 -11 -12 -13 -14 -15 -15 -15 -15 -15
3 3 2 2 2 1 1 1 0 0 -0 -1 -1 -1 -1 -1 -2 -2 -3 -4 -5 -5 -6 -6 -6 -7 -7 -8 -9 -9 -9 -9 -9 -10 -12 -13 -14 -15 -15 -16 -15 -15 -15
3 2 2 1 1 1 0 0 -0 -0 -0 -1 -1 -1 -2 -2 -3 -3 -4 -5 -5 -6 -6 -7 -7 -8 -9 -9 -10 -10 -10 -10 -11 -12 -13 -13 -14 -15 -15 -15 -16 -16 -16
2 2 1 1 0 -0 -0 -0 -0 -1 -1 -1 -2 -2 -2 -3 -4 -5 -5 -6 -6 -6 -7 -7 -8 -9 -9 -10 -10 -10 -11 -12 -12 -13 -13 -14 -14 -15 -15 -16 -16 -16 -16
2 1 0 -0 -0 -0 -1 -1 -1 -1 -2 -2 -2 -3 -3 -4 -5 -5 -6 -7 -7 -7 -8 -8 -8 -9 -10 -10 -11 -11 -12 -13 -13 -14 -14 -15 -15 -15 -15 -16 -16 -16 -16
1 0 -0 -0 -1 -1 -1 -1 -2 -2 -2 -2 -3 -4 -5 -5 -6 -6 -7 -7 -7 -8 -8 -9 -9 -10 -10 -11 -11 -12 -13 -13 -14 -14 -15 -15 -15 -16 -16 -16 -16 -16 -16
-0 -1 -1 -1 -1 -1 -1 -1 -2 -2 -3 -3 -4 -5 -6 -6 -7 -7 -7 -8 -8 -9 -9 -10 -11 -11 -11 -11 -12 -13 -14 -14 -15 -15 -15 -15 -15 -15 -16 -16 -16 -15 -15
-0 -1 -1 -1 -1 -1 -1 -2 -2 -3 -4 -5 -5 -6 -6 -7 -7 -7 -8 -9 -9 -10 -11 -11 -11 -12 -12 -13 -13 -14 -14 -15 -15 -15 -15 -15 -16 -15 -15 -15 -15 -15 -15
Height
3074 3076 3078 3081 3082 3084 3085 3086 3087 3089 3091 3094 3096 3096 3097 3098 3099 3099 3099 3099 3098 3097 3096 3094 3091 3089 3087 3084 3080 3076 3073 3070 3067 3064 3062 3058 3055 3053 3049 3047 3044 3040 3036
3065 3069 3072 3075 3078 3080 3081 3081 3082 3084 3086 3089 3091 3092 3094 3094 3095 3096 3096 3095 3095 3093 3092 3090 3088 3085 3082 3078 3074 3070 3067 3064 3061 3057 3054 3051 3051 3047 3044 3040 3038 3034 3031
3057 3062 3066 3070 3073 3075 3077 3078 3078 3080 3083 3085 3087 3089 3090 3091 3092 3092 3092 3092 3091 3090 3089 3086 3084 3080 3077 3073 3069 3066 3062 3058 3053 3049 3045 3039 3036 3032 3034 3033 3030 3025 3022
3049 3054 3059 3064 3068 3071 3073 3074 3076 3078 3080 3081 3083 3085 3087 3088 3088 3089 3089 3088 3088 3087 3084 3082 3079 3075 3072 3068 3064 3060 3056 3051 3047 3042 3038 3033 3026 3019 3014 3020 3019 3014 3010
3042 3047 3053 3059 3063 3066 3069 3071 3073 3075 3076 3078 3080 3082 3084 3085 3086 3086 3085 3085 3084 3082 3080 3077 3074 3070 3067 3063 3058 3054 3049 3044 3040 3035 3031 3027 3022 3015 3006 2998 3002 3003 2999
3036 3041 3046 3052 3057 3061 3064 3067 3070 3072 3073 3075 3077 3080 3081 3082 3083 3083 3082 3082 3080 3078 3075 3072 3069 3065 3060 3056 3051 3047 3042 3038 3033 3028 3022 3016 3010 3005 2998 2989 2983 2976 2977
3027 3034 3040 3045 3052 3057 3060 3063 3066 3068 3070 3072 3074 3077 3078 3079 3080 3080 3079 3078 3076 3073 3070 3067 3062 3058 3054 3049 3045 3040 3035 3030 3024 3019 3015 3009 3002 2995 2989 2980 2973 2964 2960
3018 3026 3033 3040 3046 3052 3056 3059 3062 3064 3066 3069 3071 3073 3075 3076 3076 3076 3075 3073 3071 3068 3065 3060 3056 3052 3047 3042 3037 3032 3027 3022 3016 3011 3005 2999 2993 2986 2978 2969 2959 2948 2945
3010 3020 3027 3033 3040 3046 3051 3055 3058 3060 3063 3065 3067 3070 3071 3072 3073 3072 3070 3068 3065 3062 3058 3054 3049 3044 3039 3035 3030 3025 3019 3014 3008 3003 2997 2990 2984 2977 2969 2961 2952 2941 2926
3005 3012 3020 3027 3034 3041 3046 3050 3053 3057 3060 3062 3064 3066 3067 3068 3068 3067 3065 3063 3060 3056 3052 3047 3042 3037 3032 3028 3022 3016 3010 3005 3000 2993 2987 2981 2973 2966 2959 2951 2942 2933 2921
3000 3007 3013 3022 3030 3035 3040 3044 3048 3052 3055 3058 3060 3062 3063 3063 3062 3061 3059 3057 3054 3050 3045 3040 3036 3031 3026 3020 3014 3008 3002 2996 2990 2984 2976 2969 2961 2954 2946 2938 2929 2920 2908
2994 3001 3008 3017 3025 3030 3035 3039 3044 3048 3051 3054 3056 3057 3058 3058 3057 3056 3053 3050 3047 3043 3038 3034 3029 3023 3018 3011 3005 2999 2994 2987 2981 2973 2965 2958 2950 2943 2935 2926 2916 2905 2896
2992 2998 3005 3014 3021 3026 3031 3035 3040 3045 3048 3050 3052 3053 3053 3053 3052 3050 3047 3044 3040 3035 3031 3026 3021 3016 3009 3003 2998 2991 2985 2978 2971 2963 2954 2947 2939 2931 2922 2911 2900 2890 2881
2992 2998 3005 3012 3018 3022 3026 3031 3036 3041 3044 3046 3047 3048 3047 3047 3046 3043 3040 3037 3033 3028 3023 3018 3013 3006 3001 2995 2989 2982 2976 2969 2961 2952 2944 2936 2927 2918 2907 2896 2885 2876 2867
2992 2999 3005 3010 3014 3017 3022 3028 3033 3037 3039 3041 3042 3042 3042 3041 3039 3037 3033 3029 3025 3021 3016 3011 3004 2998 2993 2987 2980 2973 2965 2958 2950 2942 2935 2926 2916 2906 2894 2883 2874 2865 2855
2993 2999 3003 3007 3011 3015 3020 3025 3029 3033 3035 3036 3037 3037 3036 3035 3033 3029 3026 3023 3018 3013 3007 3001 2996 2991 2985 2979 2972 2964 2956 2948 2940 2932 2924 2915 2904 2893 2884 2874 2864 2856 2846
2993 2997 3001 3005 3009 3014 3018 3023 3026 3028 3030 3031 3031 3031 3030 3028 3026 3023 3020 3015 3010 3005 3000 2994 2989 2983 2977 2970 2962 2954 2946 2939 2931 2922 2912 2902 2892 2880 2871 2864 2854 2847 2840
2994 2997 3000 3003 3007 3011 3015 3018 3021 3023 3024 3025 3025 3025 3024 3022 3019 3016 3012 3008 3003 2998 2993 2987 2981 2976 2968 2960 2953 2945 2938 2931 2922 2912 2900 2889 2880 2870 2860 2851 2843 2838 2832
2995 2998 3000 3003 3006 3009 3012 3015 3017 3018 3019 3019 3019 3019 3018 3015 3012 3009 3005 3000 2995 2990 2985 2980 2974 2966 2959 2951 2944 2936 2929 2920 2910 2901 2889 2877 2867 2859 2851 2843 2835 2829 2823
2994 2997 2999 3001 3004 3006 3009 3011 3012 3013 3014 3015 3014 3013 3011 3009 3005 3001 2997 2993 2988 2984 2978 2972 2964 2957 2949 2942 2935 2927 2917 2909 2899 2890 2879 2870 2860 2852 2844 2836 2827 2820 2814
2992 2994 2997 2999 3002 3004 3005 3007 3008 3009 3010 3009 3008 3007 3005 3002 2998 2994 2990 2986 2982 2977 2970 2964 2957 2950 2942 2935 2926 2918 2908 2897 2887 2878 2871 2861 2853 2846 2838 2830 2822 2814 2807
2990 2993 2995 2997 2999 3000 3002 3004 3005 3005 3005 3004 3003 3000 2998 2994 2991 2988 2984 2979 2974 2968 2962 2955 2950 2944 2936 2927 2917 2908 2898 2888 2878 2870 2862 2854 2845 2838 2831 2823 2816 2810 2803
2988 2990 2992 2994 2996 2998 3000 3001 3001 3001 3000 2999 2996 2994 2991 2988 2985 2982 2978 2972 2967 2960 2954 2947 2941 2934 2927 2917 2907 2898 2889 2879 2870 2863 2855 2847 2839 2832 2825 2818 2812 2805 2800
2986 2988 2990 2992 2994 2996 2997 2997 2996 2995 2994 2992 2990 2988 2985 2983 2979 2975 2970 2965 2959 2953 2946 2939 2932 2924 2916 2907 2896 2887 2878 2870 2862 2855 2849 2841 2834 2826 2821 2815 2810 2804 2798
2985 2987 2989 2990 2992 2992 2992 2992 2991 2990 2989 2987 2985 2983 2980 2976 2973 2968 2963 2958 2952 2945 2937 2930 2922 2914 2905 2896 2886 2878 2871 2864 2857 2849 2843 2836 2830 2823 2818 2813 2807 2801 2796
2984 2986 2987 2988 2988 2989 2989 2988 2987 2985 2984 2982 2980 2977 2974 2971 2967 2962 2958 2951 2945 2939 2931 2924 2915 2907 2899 2890 2881 2874 2867 2859 2852 2845 2837 2831 2825 2819 2813 2808 2804 2798 2792
Wind_Speed
29 30 32 30 23 22 23 25 27 30 30 29 26 25 24 22 20 17 18 17 18 19 21 21 22 25 27 29 30 30 30 31 31 31 29 30 31 31 32 31 32 33 35
30 29 28 27 23 22 22 23 24 25 24 24 23 24 22 21 19 17 16 17 18 19 20 21 24 26 28 29 29 30 31 32 33 34 35 35 33 33 33 33 34 35 37
34 30 29 23 22 21 19 18 18 19 20 22 22 23 22 19 16 15 15 16 17 19 20 23 26 27 28 29 29 30 31 33 35 37 38 41 42 43 38 36 36 39 41
36 34 31 26 20 18 19 18 18 18 19 20 20 18 16 15 15 14 14 15 17 20 22 25 26 28 28 29 29 31 33 35 37 38 39 40 43 46 50 42 41 43 45
38 36 33 29 25 22 19 19 19 20 19 18 18 17 16 14 12 12 13 15 18 21 23 26 27 28 29 30 31 33 36 38 39 40 40 39 41 43 50 55 50 46 47
42 38 35 31 29 25 20 20 21 20 19 19 17 16 15 12 11 11 13 16 19 22 24 27 29 30 31 33 34 37 38 39 39 39 40 42 44 46 50 55 57 61 59
46 43 38 35 33 28 23 21 22 22 21 19 17 16 14 12 10 11 14 17 20 24 27 29 31 33 35 36 37 39 41 41 40 40 40 42 45 49 51 56 60 64 65
48 46 40 33 32 30 26 21 24 24 22 20 18 16 14 12 12 14 16 19 23 26 29 32 35 36 38 39 40 42 43 41 41 41 43 45 47 49 52 56 62 68 69
40 44 40 34 33 31 27 23 25 26 23 20 19 17 14 13 14 16 19 22 26 29 32 35 37 40 40 41 43 43 43 41 42 43 45 46 49 51 53 55 57 61 71
35 39 34 34 33 33 28 25 28 26 23 22 20 18 17 16 17 19 22 26 29 32 35 37 40 42 42 43 44 44 43 43 44 45 47 48 51 53 54 55 57 59 64
33 36 38 39 33 34 29 27 30 28 25 23 22 20 18 18 20 23 25 28 32 35 37 39 42 42 43 44 44 44 44 45 46 47 50 52 54 55 56 58 60 63 65
22 26 30 35 36 32 28 30 31 28 26 24 23 21 20 21 23 26 28 32 35 37 39 42 43 43 44 44 44 44 45 47 48 50 52 53 55 56 58 61 63 64 64
21 22 27 34 33 29 28 30 31 29 26 25 24 23 23 24 26 29 31 34 37 39 41 42 42 43 43 43 43 45 46 48 49 51 53 55 57 58 61 64 64 65 64
19 20 27 28 27 26 27 30 30 28 27 26 25 25 26 27 29 31 34 37 39 40 41 42 43 44 43 43 45 46 47 49 50 52 54 56 58 61 63 64 63 61 58
19 21 23 24 24 25 27 29 29 28 27 28 28 28 28 29 31 33 36 38 39 40 41 42 42 43 43 45 46 48 49 51 53 54 55 57 60 61 61 59 58 56 54
19 19 20 19 19 22 24 26 27 28 29 30 30 30 30 31 33 35 37 38 39 40 42 42 42 42 44 45 47 49 51 53 54 56 57 59 60 59 57 54 52 48 46
15 15 13 15 19 19 21 23 25 27 29 29 29 30 30 32 34 35 36 37 38 40 40 41 41 43 45 47 48 50 52 53 54 56 58 60 58 56 54 51 49 45 43
12 13 13 14 18 21 22 23 24 24 25 26 27 28 29 31 34 34 35 37 38 39 39 39 42 44 46 48 49 51 53 53 53 56 58 57 55 52 50 48 45 43 42
14 11 11 11 13 15 17 18 19 21 22 23 24 26 29 31 32 34 35 36 36 37 38 40 42 45 46 48 50 52 53 54 56 57 56 54 51 48 45 43 45 43 39
13 12 11 12 14 14 15 16 17 18 19 21 24 26 28 30 32 33 34 35 34 36 39 40 43 45 48 49 51 52 54 56 58 56 53 49 46 43 40 42 43 40 37
12 12 12 11 12 14 14 15 16 17 19 22 24 26 28 29 31 32 32 33 34 37 39 41 43 45 47 49 50 52 54 57 57 52 48 45 43 39 39 39 37 36 37
13 12 13 13 13 13 13 14 16 18 20 22 24 25 27 28 29 30 30 33 36 38 41 43 43 44 46 48 50 52 53 53 51 47 44 42 40 39 37 34 33 33 31
13 13 13 12 12 12 14 15 17 18 20 21 23 25 27 27 27 28 31 33 37 41 42 44 45 46 47 49 52 53 52 48 46 44 41 40 38 37 32 31 31 30 30
12 11 10 11 11 12 14 15 16 17 19 22 23 24 24 25 27 29 33 36 39 41 43 44 47 48 49 51 53 53 49 45 45 42 39 38 37 33 30 28 25 26 27
9 9 9 9 11 12 12 14 16 18 20 21 22 22 22 25 28 32 35 37 39 43 45 47 48 50 52 53 53 49 45 44 41 40 38 36 32 29 25 22 23 24 25
7 8 9 9 9 10 12 15 17 18 19 18 19 20 24 27 30 33 34 38 40 40 43 45 48 50 51 49 46 42 41 40 38 37 36 34 30 27 24 24 22 23 26
Wind_Direction
236 243 241 237 246 256 266 262 252 249 246 249 253 254 259 265 268 267 269 279 285 291 295 299 304 305 305 306 307 309 311 310 309 307 305 303 301 299 298 298 297 296 297
238 242 239 238 251 255 262 261 256 251 246 243 241 246 252 254 256 260 268 278 284 290 294 299 301 301 304 307 311 312 311 310 309 308 307 303 298 295 296 296 296 293 292
232 232 230 243 249 252 260 254 244 238 234 233 236 239 242 245 250 260 271 278 285 289 292 296 299 304 308 311 312 312 312 313 314 313 312 310 306 302 296 296 297 296 296
221 227 227 235 245 251 254 245 235 231 230 231 230 231 234 240 251 263 270 278 283 288 294 299 304 307 310 311 313 315 317 317 315 314 312 310 308 307 304 303 303 302 302
217 222 226 228 238 249 252 241 235 231 226 224 224 225 236 244 249 258 272 279 285 292 299 303 307 309 311 314 316 319 319 319 317 314 310 308 307 308 307 307 306 303 303
220 221 220 230 238 242 248 239 235 231 226 222 224 230 233 232 245 264 276 284 291 298 302 306 309 312 315 318 319 320 320 318 316 314 313 312 310 310 309 309 310 309 310
221 222 225 232 235 239 243 240 235 231 227 223 223 224 221 230 251 269 281 290 297 302 307 310 312 315 317 318 319 320 319 319 317 314 312 311 311 310 311 310 309 309 309
223 221 227 234 234 237 238 240 235 231 226 224 220 218 224 240 259 275 286 294 301 306 309 311 313 315 316 317 319 319 318 318 316 314 313 312 312 312 312 311 310 309 309
223 223 229 230 230 235 234 238 233 229 225 222 217 219 233 249 266 281 292 298 303 307 308 310 313 315 316 317 318 317 316 316 314 312 312 312 312 312 312 311 309 309 309
224 221 223 224 229 233 229 235 225 223 223 220 218 227 242 257 273 287 295 300 303 305 307 310 313 314 315 315 315 316 315 315 313 313 313 313 313 313 312 310 309 307 306
233 225 220 224 233 227 223 228 221 220 220 221 226 237 251 264 278 287 294 299 302 304 307 309 311 311 312 313 315 315 314 314 314 314 314 315 314 313 313 311 310 308 306
213 214 214 219 226 223 222 222 218 220 220 225 234 245 256 268 277 286 293 298 302 304 305 307 309 311 313 315 314 314 313 314 314 315 316 316 315 314 312 311 310 309 309
186 196 207 215 221 220 221 218 216 219 223 231 241 250 259 268 277 286 293 297 300 301 303 307 309 311 314 313 313 313 313 315 316 317 317 315 314 313 313 312 311 311 312
193 205 211 216 218 222 220 214 217 222 228 236 245 253 261 270 279 287 292 296 297 300 305 308 311 313 313 313 313 313 315 316 318 318 317 315 314 314 313 314 314 314 313
189 198 209 214 217 213 209 212 219 227 235 242 249 256 264 273 281 288 292 294 298 302 306 309 312 311 312 312 313 314 316 319 319 318 317 315 315 315 315 315 314 313 313
191 198 206 210 211 207 209 216 224 232 240 246 253 260 267 275 283 287 291 295 300 305 308 310 309 310 312 313 315 317 319 319 319 317 316 316 316 315 315 315 314 314 317
179 188 194 203 205 208 215 223 232 239 245 251 257 263 270 278 284 289 293 298 304 306 306 307 310 312 313 315 317 318 319 319 318 317 317 318 317 317 317 316 315 317 314
155 165 175 187 195 204 212 221 231 240 248 254 259 265 274 282 286 291 298 302 303 304 306 310 311 313 315 317 319 319 319 319 318 317 319 319 319 320 320 319 316 318 319
149 160 177 188 196 204 215 226 237 246 252 256 263 273 279 284 292 297 299 300 303 305 309 311 313 315 318 319 320 319 319 319 319 320 321 323 324 323 322 318 318 320 320
172 178 191 204 212 217 226 237 245 248 253 263 272 278 285 291 295 297 299 301 304 308 310 312 315 319 320 321 320 320 319 321 321 323 324 324 323 323 321 319 320 322 324
194 203 207 209 215 226 237 240 245 255 265 272 279 285 291 294 295 297 300 303 308 309 312 316 319 320 321 320 319 320 322 322 323 326 326 325 323 324 323 322 323 325 329
215 220 222 226 229 233 236 246 256 265 272 280 287 290 291 293 295 297 303 307 309 312 316 319 320 320 319 319 320 322 323 324 325 327 328 325 326 326 325 324 326 327 330
219 225 229 226 223 231 246 257 267 276 282 285 288 290 291 292 298 303 305 309 313 317 320 320 319 320 322 323 323 324 325 326 327 327 329 327 326 327 328 327 327 329 329
217 209 210 220 233 247 260 270 276 282 284 285 286 289 293 299 302 306 311 315 318 320 319 319 320 323 324 325 325 326 328 328 327 328 329 328 329 330 329 327 325 327 329
194 201 219 239 254 263 270 275 278 280 283 285 288 293 298 304 309 312 316 319 321 321 321 322 324 325 327 327 327 327 328 326 326 327 328 329 331 330 331 331 330 329 332
214 235 248 258 264 270 274 278 280 281 284 288 295 301 306 309 312 315 319 321 321 320 321 322 324 326 326 325 324 324 325 324 326 328 330 331 333 334 336 336 337 336 337